Find Kosmos-706

NORAD ID: 7625 Int'l Des: 1975-007 Owner: PVO Country: SU operational
MEOELLIPTICALHEO_ELLIPTICALSEMI_SYNCMOLNIYA

Live-Position

3D-Globus wird geladen...

Über Kosmos-706

Beschreibung wird geladen...

Nächste Überflüge

Passes for default location (London). Set your location on the main map for personalized predictions.

Höhenverlauf

Loading altitude history...

Zweizeiliger Elementsatz

1 07625U 75007A 26099.02751943 -.00000637 00000-0 00000-0 0 9993
2 07625 63.9507 161.0179 6863543 3.1555 359.7390 2.00636963235057
Epoch: 9. Apr. 2026 • Age: 196 hours

Aktueller Status

Höhe 36304.4 km
Geschwindigkeit 1.92 km/s
Subsatellitenpunkt 7.97°N, 63.04°E
Typ other

Most Searched